This demonstration page uses our WeatherBlox Daily Observations layout. Learn more.

Hourly Observations for May 2, 2016

Temp ( °F °C ) Dew Point ( °F °C ) Humidity (%) Winds ( mph kmh ) Pressure ( in mb ) Visibility ( mi km ) Precip ( " mm )
12:15 am 00:15 Cloudy 55 13 55 13 100 100 Calm 30 1016 7 11.26538 0 0
12:35 am 00:35 Cloudy 55 13 55 13 100 100 NE 3 6 30 1016 10 16.0934 0 0
12:55 am 00:55 Cloudy 55 13 55 13 100 100 Calm 30 1016 7 11.26538 0 0
1:15 am 01:15 Cloudy 55 13 55 13 100 100 ESE 5 7 30 1016 7 11.26538 0 0
1:35 am 01:35 Cloudy with Light Rain 55 13 55 13 100 100 SE 3 6 30 1016 5 8.0467 0 0
1:55 am 01:55 Cloudy with Light Rain 55 13 55 13 100 100 ENE 3 6 29.97 1015 5 8.0467 0 0
2:15 am 02:15 Cloudy with Mist and Fog 55 13 55 13 100 100 SE 5 7 30 1016 4 6.43736 0 0
2:35 am 02:35 Cloudy with Mist and Fog 55 13 55 13 100 100 ESE 3 6 29.97 1015 2.5 4.02335 0 0
2:55 am 02:55 Cloudy with Mist and Fog 55 13 55 13 100 100 SSE 3 6 29.97 1015 0.75 1.207005 0 0
3:15 am 03:15 Cloudy with Fog 55 13 55 13 100 100 SE 3 6 29.97 1015 0.5 0.80467 0 0
3:35 am 03:35 Cloudy with Fog 55 13 55 13 100 100 ESE 5 7 29.97 1015 0.25 0.402335 0 0
3:55 am 03:55 Cloudy with Fog 55 13 55 13 100 100 Calm 29.97 1015 0.25 0.402335 0 0
4:15 am 04:15 Cloudy with Fog 55 13 55 13 100 100 Calm 29.94 1014 0.25 0.402335 0 0
4:35 am 04:35 Cloudy with Fog 55 13 55 13 100 100 Calm 29.94 1014 0.25 0.402335 0 0
4:55 am 04:55 Cloudy with Fog 55 13 55 13 100 100 NE 3 6 29.97 1015 0.25 0.402335 0 0
5:15 am 05:15 Cloudy with Fog 55 13 55 13 100 100 ENE 3 6 29.97 1015 0.5 0.80467 0 0
5:35 am 05:35 Cloudy with Fog 55 13 55 13 100 100 ENE 5 7 29.97 1015 0.5 0.80467 0 0
5:55 am 05:55 Cloudy with Fog 55 13 55 13 100 100 ESE 6 9 29.94 1014 0.5 0.80467 0 0
6:15 am 06:15 Cloudy with Mist and Fog 55 13 55 13 100 100 Calm 29.97 1015 1.25 2.011675 0 0
6:35 am 06:35 Cloudy with Mist and Fog 55 13 55 13 100 100 SSW 3 6 29.97 1015 1 1.60934 0 0
6:55 am 06:55 Cloudy with Fog 55 13 55 13 100 100 N 6 9 30 1016 0.5 0.80467 0 0
7:15 am 07:15 Cloudy with Mist and Fog 55 13 55 13 100 100 N 5 7 30 1016 0.75 1.207005 0 0
7:35 am 07:35 Cloudy with Mist and Fog 55 13 55 13 100 100 Calm 30 1016 1 1.60934 0 0
7:55 am 07:55 Cloudy with Rain 55 13 55 13 100 100 SSW 7 11 30.03 1017 1.25 2.011675 0 0
8:15 am 08:15 Cloudy with Rain 55 13 55 13 100 100 SE 5 7 29.97 1015 1.5 2.41401 0 0
8:35 am 08:35 Cloudy with Mist and Fog 55 13 55 13 100 100 SE 5 7 29.94 1014 4 6.43736 0 0
8:55 am 08:55 Cloudy 55 13 55 13 100 100 S 7 11 29.97 1015 7 11.26538 0 0
9:15 am 09:15 Cloudy with Mist and Fog 57 14 57 14 100 100 S 6 9 29.97 1015 5 8.0467 0 0
9:35 am 09:35 Cloudy 59 15 59 15 100 100 S 7 11 29.97 1015 7 11.26538 0 0
9:55 am 09:55 Cloudy 59 15 59 15 100 100 S 7 11 29.97 1015 7 11.26538 0 0
10:15 am 10:15 Cloudy 59 15 59 15 100 100 S 7 11 29.97 1015 7 11.26538 0 0
10:35 am 10:35 Cloudy 61 16 61 16 100 100 S 8 13 29.97 1015 7 11.26538 0 0
10:55 am 10:55 Cloudy 61 16 61 16 100 100 S 9 15 29.97 1015 7 11.26538 0 0
11:15 am 11:15 Cloudy 61 16 61 16 100 100 S 8 13 29.94 1014 10 16.0934 0 0
11:35 am 11:35 Cloudy 63 17 63 17 100 100 S 10 17 29.94 1014 10 16.0934 0 0
11:55 am 11:55 Cloudy 63 17 63 17 100 100 S 7 11 29.94 1014 10 16.0934 0 0
12:15 pm 12:15 Cloudy 66 19 64 18 94 94 S 6 9 29.94 1014 10 16.0934 0 0
12:35 pm 12:35 Cloudy 68 20 64 18 88 88 S 7 11 29.94 1014 10 16.0934 0 0
12:55 pm 12:55 Mostly Cloudy 70 21 64 18 83 83 SSE 5 7 29.91 1013 10 16.0934 0 0
1:15 pm 13:15 Mostly Cloudy 70 21 64 18 83 83 SSE 7 11 29.91 1013 10 16.0934 0 0
1:35 pm 13:35 Partly Cloudy 72 22 64 18 78 78 SSE 8 13 29.91 1013 10 16.0934 0 0
1:55 pm 13:55 Sunny 73 23 66 19 78 78 S 7 11 29.91 1013 10 16.0934 0 0
2:15 pm 14:15 Sunny 77 25 66 19 69 69 S 13 20 29.88 1012 10 16.0934 0 0
2:35 pm 14:35 Sunny 79 26 68 20 70 70 S 16 26 29.88 1012 10 16.0934 0 0
2:55 pm 14:55 Sunny 79 26 66 19 65 65 SSW 12 19 29.88 1012 10 16.0934 0 0
3:15 pm 15:15 Sunny 79 26 68 20 70 70 SW 8 13 29.88 1012 10 16.0934 0 0
3:35 pm 15:35 Sunny 79 26 66 19 65 65 SSE 10 17 29.88 1012 10 16.0934 0 0
3:55 pm 15:55 Sunny 79 26 66 19 65 65 S 10 17 29.85 1011 10 16.0934 0 0
4:15 pm 16:15 Sunny 81 27 66 19 62 62 S 9 15 29.85 1011 10 16.0934 0 0
4:35 pm 16:35 Sunny 81 27 68 20 66 66 S 10 17 29.85 1011 10 16.0934 0 0
4:55 pm 16:55 Sunny 81 27 68 20 66 66 S 10 17 29.85 1011 10 16.0934 0 0
5:15 pm 17:15 Sunny 82 28 68 20 62 62 S 8 13 29.83 1010 10 16.0934 0 0
5:35 pm 17:35 Sunny 81 27 68 20 66 66 SSE 3 6 29.83 1010 10 16.0934 0 0
5:55 pm 17:55 Sunny 81 27 68 20 66 66 SSW 8 13 29.8 1009 10 16.0934 0 0
6:15 pm 18:15 Sunny 81 27 68 20 66 66 SE 3 6 29.8 1009 10 16.0934 0 0
6:35 pm 18:35 Partly Cloudy 81 27 68 20 66 66 ESE 8 13 29.83 1010 10 16.0934 0 0
6:55 pm 18:55 Mostly Cloudy 79 26 68 20 70 70 SE 8 13 29.83 1010 10 16.0934 0 0
7:15 pm 19:15 Mostly Cloudy with Light Rain 75 24 68 20 78 78 SE 9 15 29.83 1010 10 16.0934 0 0
7:35 pm 19:35 Cloudy with Heavy Thunderstorms 72 22 68 20 88 88 ESE 7 11 29.8 1009 5 8.0467 0 0
7:55 pm 19:55 Cloudy with Heavy Thunderstorms 70 21 68 20 94 94 SSW 10 17 29.85 1011 4 6.43736 0 0
8:15 pm 20:15 Cloudy with Thunderstorms 66 19 64 18 94 94 NNE 3 6 29.83 1010 1 1.60934 0 0
8:35 pm 20:35 Cloudy 66 19 66 19 100 100 S 9 15 29.88 1012 5 8.0467 0.11 2.794
8:55 pm 20:55 Cloudy 64 18 64 18 100 100 S 3 6 29.88 1012 10 16.0934 0.15 3.81
9:15 pm 21:15 Cloudy with Light Rain 64 18 64 18 100 100 Calm 29.88 1012 10 16.0934 0.02 0.508
9:35 pm 21:35 Cloudy with Light Rain 64 18 64 18 100 100 NNE 5 7 29.88 1012 10 16.0934 0.03 0.762
9:55 pm 21:55 Mostly Cloudy with Light Rain 64 18 64 18 100 100 ESE 5 7 29.88 1012 10 16.0934 0.04 1.016
10:15 pm 22:15 Mostly Cloudy 64 18 64 18 100 100 Calm 29.85 1011 10 16.0934 0 0
10:35 pm 22:35 Cloudy with Light Rain 64 18 64 18 100 100 SSE 6 9 29.88 1012 10 16.0934 0 0
10:55 pm 22:55 Cloudy 64 18 64 18 100 100 S 6 9 29.88 1012 10 16.0934 0 0
11:15 pm 23:15 Cloudy 64 18 64 18 100 100 Calm 29.88 1012 10 16.0934 0 0
11:35 pm 23:35 Cloudy 64 18 64 18 100 100 Calm 29.85 1011 10 16.0934 0 0
11:55 pm 23:55 Mostly Cloudy 64 18 64 18 100 100 Calm 29.85 1011 10 16.0934 0 0

Powered by AerisWeather